CAPE
1 0 0 0 0 0 0 0 0 0 1 0 0 0 0 0 0 0 0 0 0 0 0 0 0 0 0 0 0 0 0 0 0 0 0 0 0 0 47 0 27 72 289 182 161
3 1 0 0 0 0 0 1 0 0 5 2 0 0 0 0 0 0 0 0 0 0 0 0 0 0 0 0 0 0 0 0 0 0 0 0 5 101 14 18 0 127 214 233 103
15 9 4 3 8 0 0 0 0 1 0 3 1 0 0 0 0 0 0 0 0 0 0 0 0 0 0 0 0 0 0 0 0 0 0 17 91 383 0 0 0 26 150 238 119
6 4 16 11 16 16 2 0 0 0 5 5 4 4 0 0 0 0 0 0 0 0 0 0 0 0 0 0 0 0 0 0 0 0 0 2 83 274 2 12 0 196 381 207 72
6 4 5 5 15 18 14 0 0 0 0 3 5 4 0 0 0 0 0 0 0 0 0 0 0 0 0 0 0 0 0 0 0 0 0 24 643 474 572 377 261 209 357 175 4
22 13 5 5 6 9 14 5 0 0 0 0 6 2 0 0 0 0 0 0 0 0 0 0 0 0 0 0 0 0 0 0 0 0 1 5 25 333 640 284 327 318 173 17 5
23 23 21 4 5 6 10 5 0 0 0 1 5 6 2 0 0 0 0 0 0 0 0 0 0 0 0 0 0 0 0 0 0 0 7 0 0 2 329 474 342 171 13 0 0
23 22 20 19 15 10 3 1 0 0 0 0 6 0 0 0 0 0 0 0 0 0 0 0 0 0 0 0 0 0 0 0 0 10 0 0 8 0 0 328 136 12 0 0 0
38 25 21 16 14 12 4 0 0 0 0 0 2 0 0 0 0 0 0 0 0 0 0 0 0 0 0 0 0 0 0 0 0 3 0 0 0 0 14 495 14 0 0 0 0
31 37 24 22 16 10 2 0 0 0 0 0 2 0 0 0 0 0 0 0 0 0 0 0 0 0 0 0 0 0 0 0 1 7 19 2 0 0 1 315 122 0 0 0 0
45 38 34 9 23 18 0 0 0 0 0 0 0 0 0 0 0 0 0 0 0 0 0 0 0 0 0 0 0 0 0 0 0 4 23 37 0 0 0 53 156 0 0 64 0
39 42 42 21 21 14 0 0 0 0 0 0 0 0 0 0 0 0 0 0 0 0 0 0 0 0 0 0 0 0 0 0 0 3 9 65 24 0 0 74 6 0 0 25 0
59 54 55 21 6 2 0 0 0 0 0 0 0 0 0 0 0 0 0 0 0 0 0 0 0 0 0 0 0 0 0 0 0 0 2 0 90 86 56 4 148 0 0 0 0
66 58 55 13 0 0 0 0 0 0 0 0 0 0 0 0 0 0 0 0 0 0 0 0 0 0 0 0 0 0 0 0 0 3 0 0 0 129 19 145 154 22 0 0 0
60 67 63 38 0 0 0 0 0 2 0 0 0 0 0 0 0 0 0 0 0 0 0 0 0 0 0 0 0 0 0 2 0 0 0 0 9 0 36 129 138 18 47 3 4
77 76 59 22 0 0 0 0 4 12 0 0 0 0 0 0 0 0 0 0 0 0 0 0 0 0 0 0 0 0 0 0 0 0 0 0 16 9 68 92 155 18 96 26 0
65 78 64 5 0 6 0 15 14 3 0 0 0 0 0 0 0 0 0 0 0 0 0 0 0 0 0 0 0 0 0 0 0 0 0 28 41 22 0 0 13 229 194 64 38
53 52 62 11 0 0 11 9 2 0 0 0 0 0 0 0 0 0 0 0 0 0 0 0 0 0 0 0 0 0 0 0 0 0 0 0 0 10 0 0 0 247 243 102 7
41 31 49 6 0 13 30 2 0 0 0 0 0 0 0 4 0 0 0 0 0 0 0 0 0 0 0 0 0 0 0 0 0 54 12 0 5 5 0 0 0 0 2 2 0
38 46 27 10 6 28 25 10 0 0 0 0 0 0 0 0 0 0 0 0 0 0 0 0 0 0 0 0 0 0 0 0 0 6 10 4 3 15 0 0 0 0 0 0 0
35 31 14 0 18 18 21 0 0 0 0 0 0 0 0 0 0 0 0 0 0 0 0 0 0 0 0 0 0 0 0 0 2 0 6 0 0 0 1 0 0 0 0 0 3
22 9 3 4 19 17 5 2 0 0 0 0 0 0 0 0 0 0 0 1 0 0 0 0 0 0 0 0 0 0 0 0 0 0 4 3 0 0 0 0 0 0 0 0 60
16 10 18 1 2 6 6 3 0 0 0 0 0 0 0 0 0 73 51 1 1 0 0 0 0 0 0 0 0 0 0 0 0 0 0 1 0 0 0 5 0 0 0 0 0
4 1 19 22 0 0 1 4 5 3 0 0 0 0 0 0 0 50 45 18 0 0 0 2 0 0 0 0 0 0 0 0 0 0 0 0 0 9 20 10 0 0 0 0 0
0 0 0 2 12 2 0 0 3 7 0 0 0 0 0 0 0 12 26 7 10 0 0 25 0 0 0 0 0 0 0 0 0 0 0 0 11 0 42 18 0 0 0 0 0
0 1 8 0 9 22 27 0 0 0 0 0 0 0 0 0 0 0 77 43 24 3 0 6 2 0 1 0 0 0 0 0 0 0 13 17 0 0 2 1 0 0 0 0 0
0 0 0 10 16 16 3 0 0 2 0 0 0 0 0 0 2 194 141 90 55 0 0 15 1 0 0 0 0 0 0 0 0 0 0 0 0 2 0 0 2 0 0 0 0
CIN
-0 -0 -0 -0 -0 -0 -0 -0 -0 -0 -0 -0 -0 -0 -0 -0 -0 -0 -0 -0 -0 -0 -0 -0 -0 -0 -0 -0 -0 -0 -0 -0 -0 -0 -0 -0 -0 -0 -361 -0 -159 -282 -137 -71 -122
-0 -0 -0 -0 -0 -0 -0 -0 -0 -0 -0 -0 -0 -0 -0 -0 -0 -0 -0 -0 -0 -0 -0 -0 -0 -0 -0 -0 -0 -0 -0 -0 -0 -0 -0 -0 -49 -227 -88 -205 -0 -62 -13 -44 -136
-0 -0 -0 -0 -0 -0 -0 -0 -0 -0 -0 -0 -0 -0 -0 -0 -0 -0 -0 -0 -0 -0 -0 -0 -0 -0 -0 -0 -0 -0 -0 -0 -0 -0 -0 -45 -70 -72 -0 -0 -29 -131 -41 -28 -111
-0 -0 -0 -0 -0 -0 -0 -0 -0 -0 -0 -0 -0 -0 -0 -0 -0 -0 -0 -0 -0 -0 -0 -0 -0 -0 -0 -0 -0 -0 -0 -0 -0 -0 -0 -11 -87 -136 -35 -131 -0 -96 -35 -43 -117
-0 -0 -0 -0 -0 -0 -1 -0 -0 -0 -0 -0 -0 -0 -0 -0 -0 -0 -0 -0 -0 -0 -0 -0 -0 -0 -0 -0 -0 -0 -0 -0 -0 -0 -0 -98 -77 -145 -90 -67 -87 -84 -32 -14 -33
-7 -2 -0 -0 -0 -0 -1 -3 -0 -0 -0 -0 -0 -0 -0 -0 -0 -0 -0 -0 -0 -0 -0 -0 -0 -0 -0 -0 -0 -0 -0 -0 -0 -0 -4 -46 -176 -135 -123 -141 -117 -27 -33 -34 -43
-4 -8 -5 -0 -0 -1 -0 -4 -0 -0 -0 -0 -0 -0 -0 -0 -0 -0 -0 -0 -0 -0 -0 -0 -0 -0 -0 -0 -0 -0 -0 -0 -0 -0 -41 -0 -0 -12 -109 -67 -64 -42 -64 -0 -0
-0 -3 -9 -11 -5 -5 -4 -3 -0 -0 -0 -0 -0 -0 -0 -0 -0 -0 -0 -0 -0 -0 -0 -0 -0 -0 -0 -0 -0 -0 -0 -0 -0 -77 -0 -0 -92 -0 -0 -88 -82 -194 -0 -0 -0
-0 -1 -3 -10 -17 -14 -11 -0 -0 -0 -0 -0 -0 -0 -0 -0 -0 -0 -0 -0 -0 -0 -0 -0 -0 -0 -0 -0 -0 -0 -0 -0 -0 -39 -0 -0 -0 -0 -26 -97 -31 -0 -0 -0 -0
-1 -0 -1 -5 -16 -21 -24 -0 -0 -0 -0 -0 -0 -0 -0 -0 -0 -0 -0 -0 -0 -0 -0 -0 -0 -0 -0 -0 -0 -0 -0 -0 -8 -47 -72 -73 -0 -0 -74 -194 -207 -0 -0 -0 -0
-1 -1 -1 -5 -14 -24 -7 -0 -0 -0 -0 -0 -0 -0 -0 -0 -0 -0 -0 -0 -0 -0 -0 -0 -0 -0 -0 -0 -0 -0 -0 -0 -0 -28 -40 -128 -0 -0 -0 -203 -122 -0 -0 -117 -0
-2 -3 -2 -3 -7 -18 -5 -0 -0 -0 -0 -0 -0 -0 -0 -0 -0 -0 -0 -0 -0 -0 -0 -0 -0 -0 -0 -0 -0 -0 -0 -0 -0 -15 -15 -138 -210 -0 -0 -227 -195 -0 -0 -126 -0
-2 -2 -4 -5 -14 -8 -0 -0 -0 -0 -0 -0 -0 -0 -0 -0 -0 -0 -0 -0 -0 -0 -0 -0 -0 -0 -0 -0 -0 -0 -0 -0 -0 -1 -33 -0 -143 -215 -225 -278 -103 -0 -0 -0 -0
-3 -4 -6 -9 -0 -0 -0 -0 -0 -0 -0 -0 -0 -0 -0 -0 -0 -0 -0 -0 -0 -0 -0 -0 -0 -0 -0 -0 -0 -0 -0 -0 -0 -14 -2 -0 -0 -150 -212 -130 -122 -131 -0 -0 -0
-3 -3 -6 -10 -0 -0 -6 -0 -0 -0 -0 -0 -0 -0 -0 -0 -0 -0 -0 -0 -0 -0 -0 -0 -0 -0 -0 -0 -0 -0 -0 -16 -7 -0 -0 -0 -27 -0 -129 -93 -96 -118 -176 -90 -336
-1 -3 -8 -5 -0 -0 -0 -0 -15 -1 -0 -0 -0 -0 -0 -0 -0 -0 -0 -0 -0 -0 -0 -0 -0 -0 -0 -0 -0 -0 -0 -0 -2 -0 -0 -0 -27 -49 -87 -93 -39 -79 -116 -183 -0
-4 -2 -3 -9 -0 -9 -10 -91 -1 -0 -0 -0 -0 -0 -0 -0 -0 -0 -0 -0 -0 -0 -0 -0 -0 -0 -0 -0 -0 -0 -0 -3 -0 -0 -0 -65 -26 -37 -0 -0 -58 -79 -108 -154 -204
-8 -12 -1 -8 -0 -0 -19 -12 -0 -0 -0 -0 -0 -0 -0 -0 -0 -0 -0 -0 -0 -0 -0 -0 -0 -0 -0 -0 -0 -0 -0 -0 -0 -0 -0 -0 -0 -46 -0 -0 -0 -66 -70 -101 -253
-15 -6 -1 -26 -0 -15 -0 -42 -0 -0 -0 -0 -0 -0 -0 -22 -0 -0 -0 -0 -0 -0 -0 -0 -0 -0 -0 -0 -0 -0 -0 -0 -0 -58 -38 -0 -92 -145 -0 -0 -0 -0 -131 -154 -0
-1 -0 -1 -60 -41 -10 -6 -0 -0 -0 -0 -0 -0 -0 -0 -0 -0 -5 -0 -0 -0 -0 -0 -0 -0 -0 -0 -0 -0 -0 -0 -0 -0 -24 -18 -31 -51 -37 -16 -0 -0 -0 -0 -0 -0
-0 -0 -0 -0 -16 -5 -0 -0 -0 -0 -0 -0 -0 -0 -0 -0 -0 -0 -0 -0 -0 -0 -0 -0 -0 -0 -0 -0 -0 -0 -0 -3 -10 -1 -14 -0 -0 -0 -20 -0 -0 -0 -0 -0 -105
-0 -0 -2 -23 -0 -0 -0 -0 -0 -0 -0 -0 -0 -0 -0 -0 -0 -0 -5 -22 -0 -0 -0 -0 -0 -0 -0 -0 -0 -0 -0 -0 -1 -0 -60 -47 -0 -0 -0 -0 -0 -0 -0 -0 -112
-0 -0 -9 -1 -0 -0 -0 -0 -0 -0 -0 -0 -0 -0 -0 -0 -0 -39 -20 -67 -167 -0 -0 -0 -0 -0 -0 -0 -0 -0 -0 -0 -0 -0 -0 -13 -0 -0 -6 -11 -0 -0 -0 -0 -0
-0 -0 -0 -0 -0 -0 -0 -0 -0 -0 -0 -0 -0 -0 -0 -0 -0 -53 -113 -167 -0 -0 -0 -50 -0 -0 -0 -0 -0 -0 -0 -0 -0 -1 -0 -0 -0 -84 -48 -57 -0 -0 -0 -0 -0
-0 -0 -0 -0 -0 -0 -0 -0 -0 -0 -0 -0 -0 -0 -0 -0 -0 -6 -86 -147 -167 -0 -0 -73 -0 -0 -0 -0 -0 -0 -0 -0 -0 -0 -0 -0 -50 -0 -66 -41 -3 -0 -0 -0 -0
-0 -0 -0 -0 -0 -0 -0 -0 -0 -0 -0 -0 -0 -0 -0 -0 -0 -0 -44 -100 -83 -109 -0 -91 -5 -0 -23 -0 -0 -26 -0 -0 -0 -0 -31 -30 -0 -0 -77 -65 -0 -0 -0 -0 -0
-0 -0 -0 -1 -0 -0 -0 -0 -0 -0 -0 -0 -0 -0 -0 -0 -1 -48 -79 -128 -97 -0 -0 -0 -0 -0 -0 -31 -0 -0 -0 -0 -0 -0 -0 -0 -0 -53 -0 -15 -113 -0 -0 -0 -0
Wind_Speed
10 12 13 13 13 13 14 13 14 14 14 15 17 19 22 22 25 7 6 9 8 9 4 3 4 8 8 7 6 2 3 6 16 4 5 5 4 4 6 9 4 4 3 9 5
12 13 14 14 14 14 15 15 15 15 15 15 16 18 23 22 10 11 9 7 10 11 3 6 8 10 5 6 5 5 4 10 6 2 5 6 6 10 4 5 4 5 3 11 8
13 12 14 15 14 15 15 16 16 16 19 16 16 17 22 21 6 4 6 7 8 8 3 5 9 6 7 5 9 9 7 9 7 3 4 4 7 7 6 4 1 7 5 8 11
14 15 14 16 15 14 14 15 17 17 17 17 17 18 24 4 6 2 8 5 7 5 3 6 7 5 5 7 9 4 8 6 5 3 1 3 7 7 9 1 4 8 9 8 11
15 15 16 17 17 14 14 15 17 17 16 16 17 16 10 5 11 5 8 6 4 4 5 9 8 8 7 7 9 4 5 7 7 9 4 15 10 10 9 6 7 5 6 11 10
12 13 15 16 17 18 16 16 17 18 17 15 15 14 2 11 7 7 7 6 7 6 7 11 9 8 5 8 6 6 7 6 9 10 4 8 5 5 4 8 7 9 9 8 11
11 12 12 15 17 17 18 17 17 18 18 15 14 6 8 21 6 2 6 5 6 7 10 11 9 3 7 9 8 14 7 7 11 8 4 9 6 4 4 9 8 9 8 8 9
12 11 12 13 13 14 16 19 20 20 20 16 10 4 11 10 10 14 18 9 11 11 14 10 6 4 3 7 9 8 7 5 11 9 1 9 3 7 7 10 6 11 10 11 13
12 11 11 12 13 14 16 20 25 23 19 13 4 5 12 9 6 14 14 12 10 11 7 7 3 3 7 4 6 5 8 8 9 5 5 5 2 5 12 12 10 11 12 10 12
10 11 11 12 12 13 17 23 27 14 9 7 6 4 9 6 7 6 9 9 9 6 3 5 2 4 4 1 7 8 4 4 1 6 3 4 4 8 9 18 18 15 14 14 14
11 10 10 11 13 12 10 9 3 1 5 10 11 8 11 10 10 5 9 8 10 6 9 5 4 8 10 13 17 13 12 6 4 6 8 12 8 13 10 5 18 14 15 15 16
11 9 9 10 11 10 4 5 7 5 11 13 19 23 24 16 13 14 11 9 11 12 7 7 15 14 15 18 17 16 10 7 6 1 4 12 11 10 8 6 11 15 16 17 15
12 9 8 10 11 5 9 13 12 12 6 15 19 16 19 13 21 21 11 15 9 9 12 13 12 18 19 18 16 15 7 5 2 5 10 4 4 5 9 10 8 11 13 16 23
12 9 8 8 4 4 6 6 8 5 6 8 10 10 12 13 10 26 12 14 7 16 15 13 18 20 17 18 12 10 6 9 5 1 5 5 4 10 15 14 14 12 14 14 20
13 10 8 9 8 4 4 12 17 3 7 8 7 9 11 19 10 14 25 8 19 16 10 15 7 12 17 12 6 11 7 1 2 3 2 6 0 5 15 12 15 14 19 15 21
14 11 10 3 4 7 13 14 5 4 14 8 6 7 8 19 9 3 14 14 6 15 17 15 14 15 13 9 8 9 4 2 3 1 4 6 2 8 13 19 17 19 19 19 19
15 14 10 5 6 5 7 4 2 9 5 7 4 10 7 9 18 14 8 12 13 15 17 16 22 15 12 7 7 6 2 1 3 3 7 4 3 8 9 9 8 23 20 22 20
17 14 9 7 6 6 4 2 10 10 18 2 2 1 10 9 10 15 16 12 16 13 5 14 15 19 12 14 9 10 8 7 5 3 4 3 3 8 8 8 9 16 21 16 16
16 6 5 8 6 2 3 10 12 6 14 16 17 14 12 8 6 13 17 16 13 19 16 11 18 6 16 9 12 10 6 8 4 3 3 3 6 8 10 12 8 11 9 10 11
5 6 8 12 8 4 5 19 22 23 14 11 9 7 13 9 7 10 8 8 17 20 19 6 7 19 15 10 10 10 4 2 1 4 4 5 5 5 9 10 6 7 13 14 15
7 5 9 14 5 4 14 19 22 15 13 16 16 14 15 11 9 8 11 11 9 14 20 18 14 12 11 13 15 4 7 3 5 6 4 3 7 8 10 6 6 9 7 8 9
5 7 11 14 8 6 24 13 9 12 18 18 8 12 14 17 15 11 5 6 14 11 17 18 4 14 22 11 11 9 13 10 6 6 4 3 11 5 7 5 3 6 9 8 8
6 5 10 13 14 18 17 30 24 21 13 6 15 9 8 17 10 5 2 5 10 13 10 11 15 14 12 12 9 19 13 10 5 5 7 6 6 8 5 8 7 6 6 7 8
6 7 5 14 13 26 23 26 26 9 24 21 17 16 19 18 14 10 3 3 11 14 24 14 14 16 20 5 5 6 7 9 10 5 5 8 5 6 7 2 4 4 0 3 7
7 7 7 15 25 19 19 7 26 19 16 17 15 24 21 10 15 11 3 6 7 12 16 6 11 21 18 14 12 14 21 19 17 14 11 7 7 9 10 6 15 8 5 1 5
7 7 7 7 18 22 19 29 28 20 17 20 19 17 13 19 21 13 4 4 1 9 12 11 13 6 7 19 20 15 16 22 16 6 14 11 12 14 17 10 10 10 8 8 10
5 4 7 13 16 17 29 34 30 16 16 23 17 18 20 23 8 5 4 9 10 4 6 13 11 7 16 3 5 12 18 15 9 15 12 11 13 15 13 11 17 12 17 12 10
Wind_Direction
339 341 337 340 333 327 325 328 324 323 319 321 323 321 320 319 318 273 232 225 188 167 172 246 208 231 256 257 262 256 17 282 281 40 327 86 119 17 115 142 156 138 133 137 189
336 339 338 338 331 330 329 326 324 323 318 319 320 321 319 323 308 262 233 154 149 155 186 223 216 220 244 246 248 151 154 243 259 67 23 342 76 126 122 136 93 112 165 160 145
328 333 334 331 332 333 335 331 324 322 323 319 317 324 318 324 287 270 164 168 172 168 266 295 272 232 239 279 265 251 210 256 288 120 45 73 66 61 117 38 33 148 174 128 128
313 318 325 327 326 328 329 328 322 319 318 317 319 326 319 273 279 185 173 189 173 176 247 292 277 276 259 256 274 247 255 282 275 110 105 34 73 89 67 116 120 138 160 141 108
306 310 315 318 321 320 323 323 318 315 312 313 319 326 347 298 254 182 160 170 184 167 222 243 245 243 252 285 317 225 249 287 316 320 127 80 63 109 107 106 123 140 137 124 126
307 301 307 314 317 318 318 315 315 310 307 310 314 325 219 261 250 163 187 155 228 190 243 242 249 252 284 289 320 296 294 318 302 283 124 88 94 92 123 152 146 118 120 130 121
308 306 300 307 313 315 313 307 307 305 303 301 305 304 247 243 257 193 264 225 215 210 235 255 255 5 334 318 328 311 322 305 276 241 100 113 59 113 152 154 136 128 120 126 130
302 311 308 304 303 307 307 306 300 297 294 289 288 277 253 257 251 262 265 258 216 227 244 267 337 1 317 289 312 298 307 274 284 122 231 113 213 141 161 141 159 154 149 155 161
290 296 302 299 299 305 305 300 293 291 282 263 261 200 262 284 221 240 240 227 214 238 252 279 319 238 299 281 306 261 248 258 263 195 138 96 200 221 145 133 187 179 162 167 156
290 290 300 304 303 306 309 302 285 285 248 227 242 275 261 249 227 201 217 244 213 202 238 246 288 223 306 188 241 258 232 274 293 101 132 103 198 255 155 165 196 186 177 176 168
280 290 294 309 314 308 333 330 16 36 211 215 196 240 301 304 297 161 194 220 229 189 201 220 193 231 238 230 241 261 280 278 218 196 165 187 188 216 234 175 198 187 178 173 160
271 282 285 304 312 307 319 266 252 92 292 246 246 245 262 274 283 291 163 192 207 221 179 231 232 228 241 253 257 262 270 269 317 202 190 166 209 217 247 254 188 177 183 170 155
255 259 268 297 303 298 223 242 292 332 278 278 240 237 229 220 241 257 179 203 204 218 204 211 233 219 235 250 257 271 257 285 250 190 267 211 13 231 254 262 270 180 170 154 163
245 239 255 288 303 244 253 257 284 201 285 257 232 234 212 201 254 228 237 189 221 220 224 233 234 245 248 240 242 267 259 247 250 234 222 169 258 217 225 219 221 175 176 166 171
241 219 221 222 317 296 344 332 322 93 306 244 216 180 177 179 139 206 220 232 207 219 193 225 238 240 244 251 226 256 249 323 300 315 319 309 319 233 208 207 204 191 184 188 177
238 216 204 257 245 263 310 312 307 111 242 267 159 163 133 195 233 2 181 209 211 219 243 253 231 244 239 242 226 255 204 240 297 349 342 266 209 295 182 197 207 198 177 191 182
233 220 199 217 245 320 336 328 160 205 211 247 205 155 186 180 213 224 208 197 204 206 227 245 254 251 246 239 227 258 197 263 341 338 227 333 348 228 236 175 178 174 176 193 188
227 217 212 213 255 300 316 223 229 233 237 314 6 165 186 186 207 214 224 223 219 216 178 225 248 236 232 210 200 241 181 156 217 211 266 12 248 269 331 192 185 172 183 190 176
223 217 204 220 232 180 230 207 228 215 202 255 284 299 271 196 193 194 220 236 243 215 209 200 238 246 232 232 191 240 209 186 172 36 63 248 281 301 275 232 205 202 180 212 203
202 202 202 208 187 197 202 227 237 220 266 293 272 255 284 303 231 186 202 207 233 215 213 237 241 238 253 218 238 183 188 237 353 155 225 220 242 236 267 233 210 152 185 217 223
194 211 170 186 116 205 222 228 244 254 240 255 277 278 289 294 307 318 302 245 212 213 206 215 239 276 240 225 209 209 219 192 159 147 193 206 251 192 217 244 196 182 159 149 151
190 210 176 156 185 208 225 202 234 250 212 253 265 268 279 292 299 311 295 234 340 335 206 209 186 230 253 277 221 196 202 198 143 202 191 175 253 199 184 264 252 229 179 169 150
204 159 186 171 201 217 230 235 248 254 265 278 236 237 260 274 290 193 300 335 15 0 321 218 222 240 276 254 257 214 215 199 187 131 199 195 247 225 183 287 256 207 161 168 158
166 166 187 200 221 210 209 229 236 256 231 252 270 276 271 273 269 279 275 305 342 340 327 311 207 219 227 251 181 254 245 242 213 163 205 194 234 280 265 254 286 85 106 234 190
165 212 191 194 209 213 206 207 231 229 232 198 244 245 242 256 265 246 188 341 324 341 332 307 259 230 225 215 239 207 224 248 244 220 205 220 217 242 235 204 244 176 183 203 215
167 181 193 214 201 205 217 221 231 216 214 215 227 238 246 247 243 273 171 132 22 350 334 323 263 223 239 211 215 232 224 223 230 236 223 218 229 231 250 239 168 197 214 241 195
162 225 186 200 185 190 214 227 228 218 252 229 223 222 240 244 289 307 194 153 149 157 305 307 331 208 242 243 225 261 235 253 229 249 245 210 219 219 238 203 192 189 220 208 182